Regional Weather Roundup
Issued by NWS

Home | Current Version | Previous Version | Text Only | Print | Product List | Glossary Off
Versions: 1 2 3 4 5 6 7 8 9 10 11 12 13 14 15 16 17 18 19 20 21 22 23 24 25 26 27 28 29 30 31 32 33 34 35 36 37 38 39 40 41 42 43 44 45 46 47 48 49 50

000
ASUS43 KLSX 200257
RWRMO

WEATHER SUMMARY FOR MISSOURI
NATIONAL WEATHER SERVICE SPRINGFIELD MO
900 PM CST MON FEB 19 2018

NOTE: "FAIR" INDICATES FEW OR NO CLOUDS BELOW 12,000 FEET WITH NO
       SIGNIFICANT WEATHER AND/OR OBSTRUCTIONS TO VISIBILITY.
       CURRENT SKY AND/OR WEATHER CONDITIONS ARE NOT AVAILABLE FOR
       CHILLICOTHE AND FARMINGTON.

MOZ001>031-035>038-043-044-053-054-200400-
...NORTHERN AND WESTERN MISSOURI...

CITY           SKY/WX    TMP DP  RH WIND       PRES   REMARKS
KANSAS CTY INT CLOUDY    30  28  92 N7        29.83S FOG     WCI  23
LEE`S SUMMIT   CLOUDY    33  33 100 N8        29.83R WCI  26
ST JOSEPH      CLOUDY    28  28 100 N8        29.86S WCI  20
CHILLICOTHE      N/A     35  33  92 NW6       29.84R

$$
MOZ066>068-077>081-088>096-101>105-200400-
...SOUTHWEST MISSOURI...

CITY           SKY/WX    TMP DP  RH WIND       PRES   REMARKS
SPRINGFIELD    MOCLDY    65  59  81 S18G31    29.80F
JOPLIN         RAIN      54  54 100 NW3       29.78R FOG
BRANSON        CLOUDY    66  55  68 S13G18    29.87F

$$
MOZ032>034-039>042-045>050-055>058-069>072-200400-
...CENTRAL MISSOURI...

CITY           SKY/WX    TMP DP  RH WIND       PRES   REMARKS
COLUMBIA       NOT AVBL
JEFFERSON CITY LGT RAIN  64  59  83 S16G28    29.80F
ROLLA          LGT RAIN  64  57  78 S10G22    29.88R
SEDALIA        LGT RAIN  41  41 100 NW6       29.83S
WARRENSBURG    LGT RAIN  36  34  93 NW6       29.83S

$$
MOZ051-052-059>065-200400-
...EAST CENTRAL MISSOURI...

CITY           SKY/WX    TMP DP  RH WIND       PRES   REMARKS
ST LOUIS INTL  LGT RAIN  67  59  75 S17G26    29.87R

$$
MOZ072>076-082>087-097>100-106>115-200400-
...SOUTH CENTRAL AND SOUTHEAST MISSOURI...

CITY           SKY/WX    TMP DP  RH WIND       PRES   REMARKS
CAPE GIRARDEAU FAIR      65  57  75 S9        29.99S
POPLAR BLUFF   FAIR      66  59  78 S10       29.97S
WEST PLAINS    CLOUDY    65  57  75 S14G21    29.92R

$$


USA.gov is the U.S. government's official web portal to all federal, state and local government web resources and services.